STARLINK-35429, 66590

Orbit data source: Space-Track

STARLINK-35429, 66590 is a payload satellite owned by SpaceX/Seattle (US) in LEO that was launched on Sat, 22 Nov 2025 UTC via an FALCON 9 launch vehicle from the Air Force Eastern Test Range (AFETR). Payload-class satellites include a variety of spacecraft equipped with specific instruments for various scientific and technological missions. These include communications satellites like Starlink; space stations such as the ISS; scientific satellites like the Hubble; Earth observation satellites from companies like Planet Labs, Umbra, and HawkEye 360; GPS; miniature CubeSats for education and research; and military/defense satellites.

Loading next visibility...
Identifier
66590, 2025-270C
Orbit
LEO
Country
Flag of USUS
Related business
Manufacturer
SpaceX/Seattle
Mission
Operational Commercial Communications
Bus & Motor
STARLINK V2MO, Unknown motor
Mass
575 kg wet, ~530 kg dry
Launch date (UTC)
2025-11-22 (7 months ago)
Launch vehicle
FALCON 9
Launch site
Air Force Eastern Test Range (AFETR)
Object type
Payload
Rocket body
Debris
Shape & HBR
Box + 2 Pan, 17.7 m
Radar Cross Section
36.964 m², Large (>1 m²)

Expand to show TLE details & history
Last TLE update: 12 hours ago

TLE from 12 hours ago
0 STARLINK-35429
1 66590U 25270C   26171.36193521  .00010804  00000-0  40141-3 0  9995
2 66590  42.9984 196.7396 0001545 281.4883  78.5796 15.27592037 33519
Epoch: 2026-06-20T08:41Z
TLE epoch observation values (Epoch: 2026-06-20T08:41:11.202Z)
Latitude
0.00006°
Longitude
157.86534°
Altitude
482.579 km
Speed
7.626 km/s
True Right ascension
13h 06m 57s
True Declination
0° 00' 00"
Sunlit
Object was in daylight at epoch
Visualization orbit readout
Latitude
Unknown
Longitude
Unknown
Altitude
Unknown
Speed
Unknown
Apparent Right ascension
Unknown
Apparent Declination
Unknown
Sunlit
N/A
Visualization observer readout
Local Sidereal Time
07:18:11
Azimuth
Unknown
Elevation
Unknown
Doppler factor
Unknown
Orbital elements
Apogee altitude
486.019 km
Perigee altitude
483.898 km
Semi-major axis
6,863.096 km
Eccentricity
0.00015
Inclination
42.9984°
RAAN
196.7396°
Arg. of periapsis
281.4883°
True anomaly
78.59695°
Mean anomaly
78.5796°
Eccentric anomaly
78.58828°
Mean motion
3.81736 °/min
Orbital period
94.31 mins
BSTAR
0.00040141
Loading maneuver chart data...
Computing Atmospheric mass density...
Loading historical data...
Loading historical data...
Loading historical data...
Loading historical data...
Loading historical data...
Loading historical data...
Loading historical data...

Documentation

Showing up to 5 results
|